Location: Goettingen
(51.5300°N, 9.9433°E)
Time: 06:55:13
(UTC+01:00)

ISS - Pass Details

Date: 07 December 2019
Orbit: 411 x 421 km, 51.6° (Epoch: 15 December)

Event Time Altitude Azimuth Distance (km) Brightness Sun altitude
Rises 17:35:20 0° 283° (WNW) 2,358 1.1 -12.2°
Reaches altitude 10° 17:37:27 10° 279° (W) 1,495 0.0 -12.5°
Maximum altitude 17:40:44 56° 200° (SSW) 504 -3.2 -12.9°
Enters shadow 17:43:44 12° 123° (ESE) 1,376 -1.5 -13.4°
